[[{"header":{"parameterUnit":"m.s-1","parameterCategory":2,"la1":30.2991,"la2":30.254,"lo1":-89.0895,"lo2":-89.0444,"dy":0.0017,"dx":0.0017,"nx":28,"ny":28,"refTime":"2023-10-19T09:00:00:Z","depth":"0","parameterNumber":2,"parameterNumberName":"U-component_of_CURRENTS"},"data":[0,0,0,0,0,0,0,0,0,0,0,0,0,0,0,0,0,0,0,0,0,0,0,0,0,0,0,0,0,0,0,0,0,0,0,0,0,0,0,0,0,0,0,0,0,0,0,0,0,0,0,0,0,0,0,0,0,0,0.448,0.448,0,0.4449,0.4448,0.4448,0.4432,0.4432,0.4432,0.4432,0.4369,0.4367,0.4366,0,0,0,0,0,0,0,0,0,0,0,0,0,0.4442,0.4443,0.448,0.448,0.448,0.4449,0.4448,0.4448,0.4432,0.4432,0.4432,0.4432,0.437,0.4368,0.4365,0,0,0,0,0,0,0,0,0,0,0,0,0,0.4437,0.4444,0.448,0.447,0.4469,0.4449,0.4448,0.4448,0.4431,0.4432,0.4432,0.4432,0.4371,0.4368,0.4365,0.4341,0,0,0.4357,0.4355,0,0,0,0,0,0,0,0,0.4438,0.4438,0.4472,0.4471,0.447,0.4447,0.4412,0.4411,0.4431,0.4443,0.4432,0.4433,0.4394,0.4389,0.4379,0.4338,0.4335,0.4356,0.4355,0.4353,0.4353,0,0,0,0,0,0,0,0.4438,0.4439,0.4465,0.4472,0.447,0.4439,0.4439,0.4411,0.4414,0.4442,0.4441,0.4442,0.4393,0.4382,0.4377,0.4334,0.4356,0.4354,0.4352,0.4351,0.4336,0.4338,0,0,0,0,0,0,0.4452,0.444,0.4466,0.4465,0.4457,0.444,0.444,0.4452,0.4415,0.4411,0.4442,0.4441,0.4387,0.4381,0.4375,0.4456,0.4353,0.4351,0.4349,0.4335,0.4337,0.4338,0,0,0,0,0,0,0.4451,0.4455,0.4468,0.4453,0.4453,0.4441,0.4454,0.4451,0.4453,0.4416,0.4411,0.4449,0.4387,0.4379,0.4374,0.4449,0.4349,0.4347,0.4334,0.4336,0.4337,0.4545,0,0,0,0,0,0,0.445,0.4455,0.446,0.4454,0.4454,0.4481,0.4454,0.445,0.4453,0.4453,0.442,0.4413,0.4386,0.4379,0.4371,0.4443,0.4345,0.4332,0.4334,0.4337,0.4536,0.4553,0.4568,0,0,0,0,0,0.4449,0.445,0.4461,0.4463,0.4465,0.4482,0.448,0.4469,0.4454,0.4468,0.4444,0.4415,0.4389,0.4377,0.4368,0.4441,0.4331,0.4334,0.4337,0.4529,0.455,0.4568,0,0,0,0,0,0,0.442,0.4449,0.446,0.4467,0.449,0.4481,0.4482,0.4477,0.4468,0.4466,0.4425,0.4418,0.4457,0.4396,0.4384,0.4438,0.4357,0.4359,0.4507,0.4526,0.4542,0.4615,0.4342,0,0,0,0,0,0.4423,0.4442,0.4467,0.4474,0.449,0.449,0.4491,0.4497,0.449,0.4486,0.4463,0.4441,0.4458,0.4448,0.4442,0.445,0.4444,0.4488,0.4505,0.4519,0.4569,0.4614,0.4641,0.4348,0.4348,0.4348,0,0,0.4408,0.443,0.4436,0.4471,0.4482,0.452,0.4491,0.4512,0.4557,0.448,0.4512,0.4503,0.4474,0.4516,0.4525,0.4475,0.4595,0.4523,0.4536,0.4579,0.4621,0.465,0.4676,0.435,0.4349,0.4349,0,0,0.4399,0.4421,0.4441,0.4472,0.4512,0.4534,0.4549,0.4565,0.459,0.4611,0.4602,0.4647,0.4596,0.4647,0.4652,0.4741,0.4692,0.4709,0.4842,0.4886,0.4912,0.4935,0.4962,0.4986,0.4701,0.4702,0.4702,0,0.4379,0.4421,0.4447,0.4484,0.4517,0.455,0.4594,0.4633,0.4645,0.4684,0.4642,0.4689,0.4684,0.4792,0.4848,0.4793,0.4782,0.4781,0.4914,0.4937,0.4957,0.4979,0.5003,0.4712,0.4711,0.471,0.4709,0,0.4396,0.4436,0.4453,0.4529,0.4571,0.4613,0.4688,0.4738,0.4761,0.4796,0.4893,0.4899,0.4925,0.4947,0.4936,0.5087,0.5022,0.4949,0.4883,0.5001,0.5014,0.5036,0.4727,0.4723,0.472,0.4718,0,0,0.4323,0.4445,0.4446,0.4505,0.4605,0.4641,0.4752,0.4862,0.4933,0.4979,0.507,0.517,0.5175,0.5187,0.5187,0.5261,0.5421,0.5181,0.5178,0.5241,0.5505,0.5318,0.5322,0.5357,0.5362,0.5365,0.5457,0,0.433,0.4413,0.4479,0.4575,0.4635,0.4728,0.4824,0.4932,0.5008,0.5101,0.5194,0.5265,0.5262,0.5286,0.5375,0.5413,0.5485,0.5403,0.5353,0.5353,0.5201,0.5344,0.5138,0.5189,0.5478,0.5481,0.5483,0,0.4319,0.4388,0.4479,0.463,0.4663,0.4726,0.4894,0.4983,0.5152,0.5209,0.5324,0.5367,0.5545,0.5478,0.5645,0.5579,0.5582,0.5599,0.5599,0.5378,0.5207,0.5114,0.5216,0.5149,0.5515,0.5513,0.551,0,0.4254,0.4387,0.4467,0.4511,0.4679,0.4746,0.4837,0.5002,0.5091,0.5279,0.5342,0.5517,0.5585,0.5666,0.5722,0.5685,0.5856,0.5776,0.5617,0.5601,0.5397,0.5354,0.546,0.589,0.589,0.589,0.589,0,0.4238,0.4297,0.4438,0.4476,0.4578,0.4704,0.4821,0.4941,0.5105,0.5198,0.5377,0.5464,0.5635,0.5733,0.5772,0.5767,0.588,0.57,0.5635,0.5454,0.5418,0.5319,0.529,0.5893,0.5893,0.5892,0.5891,0,0.4161,0.4251,0.4343,0.4501,0.4546,0.461,0.4778,0.4856,0.5031,0.5157,0.5219,0.5455,0.5574,0.5702,0.5829,0.5788,0.5668,0.5773,0.5547,0.5454,0.5192,0.5179,0.4988,0.4848,0.563,0.5626,0.5623,0,0.4132,0.4169,0.4314,0.4352,0.442,0.4528,0.4594,0.4784,0.4861,0.5116,0.5156,0.5349,0.542,0.5565,0.5566,0.5597,0.5505,0.5399,0.5302,0.5204,0.5145,0.4952,0.4837,0.5124,0.5117,0.5111,0.5106,0,0.4076,0.412,0.4199,0.4265,0.4327,0.4404,0.4508,0.4552,0.4756,0.4851,0.498,0.5069,0.5218,0.5176,0.5223,0.5216,0.5154,0.5273,0.5254,0.4849,0.4569,0.439,0.5038,0.5055,0.5061,0.5064,0.5067,0.5069,0.4016,0.4044,0.4124,0.4162,0.4214,0.4231,0.4216,0.4314,0.437,0.4418,0.4662,0.4686,0.4834,0.4864,0.4835,0.4727,0.4726,0.4638,0.4663,0.4501,0.4265,0.4787,0.4658,0.4661,0.4663,0.4665,0.4667,0,0.3927,0.396,0.4007,0.4021,0.3968,0.4065,0.4104,0.4025,0.3952,0.4074,0.4112,0.4237,0.421,0.4333,0.4353,0.4219,0.4021,0.4134,0.39,0.3843,0.4404,0.4283,0.3965,0.3965,0.3965,0.3965,0.3965,0.3965,0.3891,0.3882,0.3883,0.3743,0.3728,0.3602,0.3564,0.3472,0.35,0.3426,0.3468,0.3615,0.3988,0.413,0.406,0.3945,0.3719,0.3478,0.3523,0.4039,0.4091,0.4139,0.4023,0.3656,0.3656,0.2785,0.2779,0.2774]},{"header":{"parameterUnit":"m.s-1","parameterCategory":2,"la1":30.2991,"la2":30.254,"lo1":-89.0895,"lo2":-89.0444,"dy":0.0017,"dx":0.0017,"nx":28,"ny":28,"refTime":"2023-10-19T09:00:00:Z","depth":"0","parameterNumber":3,"parameterNumberName":"V-component_of_CURRENTS"},"data":[0,0,0,0,0,0,0,0,0,0,0,0,0,0,0,0,0,0,0,0,0,0,0,0,0,0,0,0,0,0,0,0,0,0,0,0,0,0,0,0,0,0,0,0,0,0,0,0,0,0,0,0,0,0,0,0,0,0,0.013,0.013,0,0.0086,0.0085,0.0084,0.0039,0.0039,0.0039,0.0038,-0.0047,-0.0049,-0.0051,0,0,0,0,0,0,0,0,0,0,0,0,0,0.0125,0.0125,0.013,0.013,0.013,0.0086,0.0085,0.0084,0.0039,0.0039,0.0039,0.0038,-0.0046,-0.0049,-0.0051,0,0,0,0,0,0,0,0,0,0,0,0,0,0.0105,0.0126,0.013,0.0105,0.0102,0.0086,0.0085,0.0084,0.0039,0.0039,0.0038,0.0038,-0.0046,-0.0049,-0.0052,-0.0062,0,0,-0.0061,-0.0062,0,0,0,0,0,0,0,0,0.0107,0.0105,0.0109,0.0106,0.0104,0.0071,0.0052,0.0034,0.0039,0.0059,0.0038,0.0038,-0.0009,-0.0015,-0.0027,-0.0066,-0.007,-0.0061,-0.0063,-0.0064,-0.0065,0,0,0,0,0,0,0,0.0108,0.0107,0.0109,0.0109,0.0106,0.0078,0.0075,0.0048,0.0025,0.0058,0.0055,0.0056,-0.0011,-0.0024,-0.0029,-0.0071,-0.0061,-0.0064,-0.0066,-0.0067,-0.0103,-0.0102,0,0,0,0,0,0,0.0124,0.0108,0.011,0.0108,0.0108,0.0079,0.0075,0.0079,0.0026,0.0019,0.0056,0.0054,-0.0018,-0.0026,-0.0032,-0.0017,-0.0064,-0.0067,-0.0069,-0.0104,-0.0103,-0.0102,0,0,0,0,0,0,0.0124,0.0125,0.0112,0.011,0.0107,0.0081,0.0084,0.0078,0.007,0.0026,0.0017,0.0056,-0.0019,-0.0028,-0.0041,-0.0022,-0.0068,-0.0071,-0.0105,-0.0104,-0.0103,-0.0006,0,0,0,0,0,0,0.0124,0.0125,0.0132,0.0111,0.0107,0.0116,0.0085,0.0078,0.0073,0.007,0.0023,0.0014,-0.002,-0.0036,-0.0044,-0.0027,-0.0073,-0.0106,-0.0104,-0.0103,-0.0011,-0.0002,0.0005,0,0,0,0,0,0.0124,0.0143,0.0133,0.0133,0.0119,0.0117,0.0113,0.009,0.0074,0.0079,0.005,0.0016,-0.0032,-0.0038,-0.0048,-0.0031,-0.0107,-0.0105,-0.0103,-0.0014,-0.0004,0.0005,0,0,0,0,0,0,0.0143,0.014,0.0129,0.0144,0.0137,0.0111,0.0116,0.0098,0.0078,0.0072,0.0027,0.0017,0.0011,-0.0022,-0.0027,-0.0037,-0.0076,-0.0076,-0.0005,0.0005,0.0012,0.0049,-0.0076,0,0,0,0,0,0.0152,0.0164,0.0153,0.0165,0.0166,0.0141,0.0137,0.0121,0.0102,0.0092,0.0061,0.003,0.001,-0.0001,-0.0029,-0.0032,-0.0057,-0.0028,-0.002,-0.0013,0.001,-0.0003,0.0006,-0.0096,-0.0096,-0.0096,0,0,0.0161,0.0162,0.0167,0.0169,0.016,0.0173,0.0137,0.0139,0.0148,0.0086,0.0088,0.0055,0.0015,0.0013,0.0007,-0.0011,-0.0,-0.001,-0.0004,0.0016,0.0,0.001,0.0019,-0.0095,-0.0095,-0.0095,0,0,0.0196,0.0189,0.0215,0.0213,0.021,0.0198,0.0204,0.0185,0.0178,0.0172,0.0136,0.0126,0.0082,0.0072,0.0057,0.0094,0.0041,0.0074,0.0147,0.0134,0.0142,0.015,0.0119,0.0123,0.008,0.008,0.0081,0,0.0208,0.0239,0.0221,0.0244,0.0255,0.0216,0.0248,0.0233,0.0211,0.0226,0.0185,0.0161,0.0116,0.0141,0.0147,0.0115,0.009,0.0115,0.0146,0.0153,0.0159,0.0126,0.0129,0.0085,0.0085,0.0084,0.0084,0,0.0261,0.0284,0.03,0.0319,0.0325,0.0344,0.033,0.0337,0.0318,0.0306,0.0321,0.0266,0.0263,0.0236,0.0197,0.0227,0.0189,0.0157,0.0126,0.0175,0.0136,0.0138,0.0092,0.009,0.0089,0.0088,0,0,0.0305,0.0335,0.0344,0.0378,0.037,0.0395,0.0412,0.0441,0.0489,0.0438,0.0498,0.0438,0.0416,0.04,0.0353,0.0331,0.0331,0.0266,0.0263,0.0245,0.0291,0.0226,0.0221,0.0303,0.0304,0.0305,0.0243,0,0.036,0.0433,0.0426,0.0496,0.0537,0.0518,0.0556,0.0569,0.0567,0.061,0.0558,0.0582,0.0476,0.049,0.045,0.0378,0.0343,0.0351,0.0239,0.0236,0.018,0.0224,0.0233,0.0176,0.0244,0.0244,0.0244,0,0.0424,0.047,0.0552,0.0623,0.0643,0.0679,0.0761,0.0787,0.0815,0.0818,0.0816,0.0771,0.0751,0.0648,0.0538,0.0548,0.0429,0.0349,0.0344,0.0258,0.0176,0.0139,0.0175,-0.0039,0.0246,0.0246,0.0246,0,0.0498,0.0566,0.0646,0.0662,0.0724,0.0779,0.0822,0.0863,0.093,0.0964,0.1018,0.0955,0.096,0.0811,0.0619,0.0588,0.0484,0.0421,0.0246,0.0239,0.0214,0.0203,0.0043,0.0336,0.0336,0.0336,0.0337,0,0.0572,0.0638,0.0697,0.0745,0.0875,0.0878,0.1018,0.105,0.1124,0.1237,0.1143,0.1212,0.1001,0.0905,0.0696,0.0484,0.0538,0.0276,0.023,0.0244,0.0237,0.0021,-0.01,0.0334,0.0335,0.0335,0.0335,0,0.0644,0.0671,0.0778,0.0871,0.0916,0.1015,0.1158,0.1261,0.1304,0.145,0.1474,0.1427,0.1299,0.1055,0.0827,0.0607,0.0267,0.0296,0.0314,0.0271,-0.0105,-0.022,-0.0423,-0.0516,0.0107,0.0105,0.0103,0,0.0688,0.0748,0.0884,0.0973,0.1026,0.1166,0.1278,0.1355,0.1468,0.1589,0.1678,0.1601,0.1559,0.1185,0.0794,0.0424,0.0215,0.018,0.0114,-0.0111,-0.0272,-0.0356,-0.0423,0.0112,0.0111,0.011,0.0109,0,0.078,0.0825,0.0918,0.1101,0.1236,0.1387,0.1548,0.1665,0.1772,0.1884,0.1996,0.197,0.1613,0.1242,0.0723,0.0464,0.0032,0.0144,-0.0077,-0.0266,-0.0376,-0.049,0.0118,0.0099,0.01,0.0101,0.0101,0.0102,0.0855,0.0938,0.1068,0.1243,0.1401,0.1591,0.173,0.1887,0.2074,0.2227,0.2202,0.2194,0.1678,0.097,0.0584,-0.0081,-0.0085,-0.0289,-0.0405,-0.0465,-0.0568,0.0003,-0.0081,-0.0081,-0.0081,-0.0081,-0.0081,0,0.0944,0.1041,0.1207,0.141,0.1588,0.1653,0.1899,0.2032,0.2243,0.2364,0.242,0.219,0.1519,0.0884,-0.0024,-0.0527,-0.068,-0.0786,-0.0891,-0.0931,-0.0405,-0.042,-0.0594,-0.0594,-0.0594,-0.0594,-0.0593,-0.0593,0.1001,0.1154,0.1234,0.1528,0.1672,0.1895,0.2034,0.2224,0.237,0.2508,0.252,0.2493,0.2053,0.0375,-0.0752,-0.1013,-0.1314,-0.1414,-0.1572,-0.1216,-0.1177,-0.1141,-0.1183,-0.1515,-0.1517,-0.2019,-0.2024,-0.2028]}],[{"header":{"parameterUnit":"m.s-1","parameterCategory":2,"la1":30.2991,"la2":30.254,"lo1":-89.0895,"lo2":-89.0444,"dy":0.0017,"dx":0.0017,"nx":28,"ny":28,"refTime":"2023-10-19T09:00:00:Z","depth":"2","parameterNumber":2,"parameterNumberName":"U-component_of_CURRENTS"},"data":[0,0,0,0,0,0,0,0,0,0,0,0,0,0,0,0,0,0,0,0,0,0,0,0,0,0,0,0,0,0,0,0,0,0,0,0,0,0,0,0,0,0,0,0,0,0,0,0,0,0,0,0,0,0,0,0,0,0,0.3483,0.3484,0,0.3526,0.3525,0.3525,0.357,0.3572,0.3573,0.3575,0.3609,0.3608,0.3608,0,0,0,0,0,0,0,0,0,0,0,0,0,0.3413,0.3413,0.3483,0.3484,0.3486,0.3526,0.3525,0.3525,0.357,0.3572,0.3574,0.3576,0.3609,0.3608,0.3608,0,0,0,0,0,0,0,0,0,0,0,0,0,0.3438,0.3413,0.3483,0.3521,0.3525,0.3526,0.3525,0.3525,0.3569,0.3572,0.3574,0.3576,0.3609,0.3608,0.3607,0.3554,0,0,0.3605,0.3604,0,0,0,0,0,0,0,0,0.3437,0.3439,0.3514,0.3518,0.3524,0.3554,0.3514,0.3538,0.3569,0.3541,0.3575,0.3578,0.3595,0.3595,0.3583,0.3556,0.3557,0.3605,0.3604,0.3604,0.3604,0,0,0,0,0,0,0,0.3435,0.3438,0.3489,0.3515,0.3521,0.3528,0.3533,0.3518,0.3546,0.3544,0.355,0.3571,0.3596,0.3584,0.3584,0.3558,0.3605,0.3604,0.3603,0.3603,0.3644,0.3646,0,0,0,0,0,0,0.3449,0.3436,0.3488,0.3492,0.3497,0.3528,0.3533,0.3533,0.3546,0.3554,0.3569,0.3573,0.3584,0.3585,0.3586,0.3681,0.3604,0.3603,0.3602,0.3642,0.3644,0.3646,0,0,0,0,0,0,0.3447,0.3453,0.3486,0.3474,0.3481,0.3528,0.3527,0.3533,0.3556,0.3567,0.3573,0.3591,0.3586,0.3587,0.3611,0.3677,0.3603,0.3602,0.3641,0.3643,0.3645,0.377,0,0,0,0,0,0,0.3444,0.3451,0.3456,0.3475,0.3482,0.3521,0.3526,0.3533,0.3569,0.3575,0.3587,0.3591,0.3588,0.3613,0.361,0.3674,0.3601,0.3638,0.3642,0.3644,0.3764,0.3776,0.3787,0,0,0,0,0,0.3441,0.3458,0.3455,0.3463,0.3487,0.3523,0.3526,0.356,0.3568,0.3586,0.3596,0.3593,0.3631,0.3612,0.3609,0.3675,0.3637,0.3641,0.3644,0.3758,0.3774,0.3787,0,0,0,0,0,0,0.3439,0.3465,0.3463,0.3487,0.3515,0.3536,0.3562,0.3571,0.3587,0.3603,0.3596,0.36,0.3668,0.3631,0.361,0.3694,0.3639,0.3643,0.3727,0.3741,0.3753,0.3771,0.36,0,0,0,0,0,0.3435,0.3444,0.3476,0.3492,0.3514,0.3532,0.3551,0.3577,0.3597,0.3608,0.3621,0.3635,0.367,0.3673,0.3699,0.3708,0.3719,0.3751,0.3763,0.3773,0.3785,0.3888,0.3911,0.3658,0.3658,0.3658,0,0,0.3431,0.3453,0.3454,0.349,0.3511,0.3553,0.3548,0.3598,0.3643,0.3606,0.3669,0.3689,0.3688,0.3741,0.3764,0.3719,0.3844,0.3778,0.3787,0.3793,0.3895,0.392,0.3942,0.366,0.366,0.366,0,0,0.3442,0.3456,0.3471,0.3506,0.3562,0.3583,0.3605,0.3648,0.3684,0.3724,0.3744,0.3794,0.3802,0.3839,0.385,0.3924,0.3925,0.3933,0.3983,0.4083,0.4106,0.4126,0.4145,0.4166,0.3912,0.3913,0.3913,0,0.344,0.3467,0.3484,0.3528,0.3566,0.3603,0.3646,0.3688,0.3736,0.3773,0.3768,0.3859,0.3859,0.3947,0.3976,0.3959,0.3985,0.3934,0.4103,0.4123,0.4142,0.4157,0.4179,0.3919,0.3918,0.3918,0.3917,0,0.3468,0.3503,0.3528,0.3584,0.3622,0.3676,0.3741,0.3799,0.3839,0.3875,0.3987,0.4003,0.4054,0.407,0.4037,0.4171,0.4137,0.4133,0.4076,0.4176,0.4183,0.4204,0.3928,0.3926,0.3924,0.3922,0,0,0.3427,0.3525,0.3534,0.3572,0.3664,0.3696,0.3795,0.3883,0.3972,0.4026,0.4123,0.4188,0.4212,0.4225,0.4227,0.4287,0.4421,0.4256,0.4258,0.4287,0.4602,0.443,0.4434,0.4464,0.4469,0.4473,0.4545,0,0.3445,0.3521,0.3571,0.3651,0.3698,0.3778,0.386,0.395,0.4046,0.4155,0.421,0.4314,0.427,0.432,0.438,0.4429,0.4486,0.4398,0.4489,0.449,0.4338,0.4457,0.414,0.4168,0.4565,0.4568,0.4571,0,0.3453,0.3507,0.3589,0.369,0.372,0.3794,0.3948,0.4023,0.4188,0.4271,0.4388,0.4444,0.4546,0.4504,0.464,0.4592,0.4608,0.4627,0.4631,0.4444,0.4357,0.4136,0.4189,0.4604,0.4602,0.4599,0.4597,0,0.3402,0.3512,0.3578,0.362,0.3752,0.3829,0.3899,0.4065,0.4151,0.4369,0.4469,0.4601,0.4667,0.4754,0.476,0.4736,0.4887,0.486,0.4717,0.4702,0.4433,0.4386,0.4982,0.4981,0.4981,0.4981,0.4981,0,0.3394,0.3443,0.3579,0.3624,0.3713,0.3811,0.3961,0.4065,0.4246,0.4342,0.4523,0.4617,0.4744,0.4819,0.483,0.4816,0.495,0.4751,0.4735,0.4458,0.4415,0.479,0.4767,0.4984,0.4983,0.4983,0.4982,0,0.3324,0.3415,0.3493,0.3646,0.3699,0.3757,0.3946,0.4043,0.4253,0.4396,0.4464,0.4648,0.4739,0.4826,0.4933,0.4874,0.4906,0.4864,0.4482,0.4419,0.4631,0.4614,0.4738,0.4733,0.4729,0.4725,0.4722,0,0.3305,0.3352,0.3482,0.3534,0.3619,0.3748,0.3823,0.4013,0.4106,0.4375,0.4393,0.457,0.4619,0.4713,0.4684,0.4699,0.4796,0.4383,0.4283,0.4647,0.462,0.4609,0.4597,0.3966,0.3957,0.395,0.3944,0,0.3274,0.3325,0.3388,0.3473,0.3563,0.3644,0.3767,0.3812,0.4012,0.4146,0.4239,0.4318,0.4426,0.4276,0.4314,0.4273,0.436,0.423,0.4776,0.4061,0.3922,0.3893,0.3908,0.3879,0.3886,0.389,0.3894,0.3897,0.3247,0.3257,0.3337,0.3397,0.3472,0.3482,0.3481,0.3595,0.3654,0.3742,0.3918,0.3934,0.3998,0.387,0.3761,0.3697,0.3986,0.3829,0.3852,0.3882,0.3764,0.3625,0.35,0.3504,0.3508,0.3511,0.3514,0,0.316,0.318,0.3251,0.3261,0.3246,0.336,0.3382,0.3324,0.3268,0.3409,0.3466,0.3241,0.3183,0.3252,0.3075,0.3081,0.3061,0.2939,0.2904,0.2972,0.3032,0.2869,0.2369,0.2365,0.236,0.2357,0,0,0.3111,0.3103,0.3112,0.3032,0.3049,0.2951,0.2916,0.284,0.2867,0.2789,0.279,0.304,0.3178,0.273,0.2687,0.2494,0.2701,0.2394,0.3328,0.3356,0.341,0.3575,0.3405,0,0,0,0,0]},{"header":{"parameterUnit":"m.s-1","parameterCategory":2,"la1":30.2991,"la2":30.254,"lo1":-89.0895,"lo2":-89.0444,"dy":0.0017,"dx":0.0017,"nx":28,"ny":28,"refTime":"2023-10-19T09:00:00:Z","depth":"2","parameterNumber":3,"parameterNumberName":"V-component_of_CURRENTS"},"data":[0,0,0,0,0,0,0,0,0,0,0,0,0,0,0,0,0,0,0,0,0,0,0,0,0,0,0,0,0,0,0,0,0,0,0,0,0,0,0,0,0,0,0,0,0,0,0,0,0,0,0,0,0,0,0,0,0,0,0.0144,0.0144,0,0.0091,0.009,0.0089,0.0055,0.0055,0.0055,0.0055,-0.0019,-0.0021,-0.0023,0,0,0,0,0,0,0,0,0,0,0,0,0,0.0153,0.0153,0.0144,0.0144,0.0143,0.0091,0.009,0.0089,0.0055,0.0055,0.0055,0.0055,-0.0018,-0.0021,-0.0023,0,0,0,0,0,0,0,0,0,0,0,0,0,0.0128,0.0153,0.0144,0.0122,0.0119,0.0091,0.009,0.0089,0.0055,0.0055,0.0055,0.0055,-0.0018,-0.002,-0.0023,-0.0041,0,0,-0.0032,-0.0034,0,0,0,0,0,0,0,0,0.0129,0.0127,0.0125,0.0123,0.012,0.0082,0.0066,0.0045,0.0055,0.0077,0.0055,0.0055,0.0014,0.0008,-0.0004,-0.0045,-0.0048,-0.0033,-0.0034,-0.0036,-0.0037,0,0,0,0,0,0,0,0.0131,0.0129,0.0121,0.0125,0.0122,0.0092,0.0089,0.0061,0.0045,0.0076,0.0073,0.0071,0.0012,-0.0001,-0.0006,-0.0049,-0.0033,-0.0035,-0.0037,-0.0038,-0.0092,-0.0091,0,0,0,0,0,0,0.0145,0.0131,0.0123,0.012,0.0127,0.0093,0.0089,0.0092,0.0045,0.0039,0.0071,0.0069,0.0004,-0.0003,-0.0009,-0.0003,-0.0036,-0.0038,-0.004,-0.0092,-0.0092,-0.0091,0,0,0,0,0,0,0.0146,0.0145,0.0125,0.0125,0.0121,0.0093,0.0097,0.0091,0.0084,0.0042,0.0035,0.007,0.0004,-0.0005,-0.0023,-0.0007,-0.004,-0.0042,-0.0092,-0.0092,-0.0091,-0.001,0,0,0,0,0,0,0.0146,0.0146,0.0154,0.0127,0.0121,0.012,0.0097,0.009,0.0083,0.008,0.0039,0.0032,0.0003,-0.0018,-0.0026,-0.0012,-0.0045,-0.0093,-0.0092,-0.0092,-0.0013,-0.0006,-0.0001,0,0,0,0,0,0.0147,0.0163,0.0155,0.0154,0.0134,0.0121,0.0116,0.0094,0.0083,0.0085,0.0058,0.0033,-0.0019,-0.002,-0.0029,-0.0015,-0.0093,-0.0092,-0.0092,-0.0015,-0.0008,-0.0001,0,0,0,0,0,0,0.0171,0.0161,0.0151,0.0164,0.0148,0.0117,0.0121,0.0101,0.008,0.0079,0.0037,0.0028,0.0015,-0.0013,-0.0012,-0.003,-0.006,-0.0061,0.0001,0.0008,0.0013,0.0045,-0.0047,0,0,0,0,0,0.0181,0.0192,0.0171,0.0181,0.018,0.015,0.0143,0.0127,0.0104,0.0095,0.0064,0.0033,0.001,0.0,-0.003,-0.0037,-0.0066,-0.0035,-0.0029,-0.0024,-0.0005,-0.0033,-0.0028,-0.0089,-0.0089,-0.0089,0,0,0.0191,0.0189,0.0193,0.0187,0.0175,0.0183,0.0146,0.0143,0.0149,0.009,0.0089,0.005,0.001,0.0002,-0.0006,-0.0016,-0.0025,-0.0023,-0.0017,-0.0002,-0.0032,-0.0026,-0.002,-0.0088,-0.0088,-0.0088,0,0,0.0226,0.0219,0.0244,0.0235,0.0226,0.021,0.0214,0.0186,0.0178,0.0164,0.0128,0.0105,0.0061,0.0045,0.003,0.005,0.0003,0.0034,0.0096,0.0068,0.0074,0.0078,0.0037,0.0037,0.0043,0.0043,0.0043,0,0.0242,0.0269,0.0247,0.0265,0.0273,0.023,0.0258,0.0238,0.0206,0.0213,0.0176,0.0129,0.0087,0.0095,0.0096,0.0067,0.0036,0.0075,0.0078,0.0082,0.0085,0.0042,0.0041,0.0047,0.0046,0.0046,0.0045,0,0.0292,0.0312,0.0326,0.0341,0.0344,0.0357,0.0336,0.0337,0.0314,0.0292,0.0284,0.0222,0.0204,0.0176,0.0139,0.0147,0.0112,0.0085,0.0066,0.0096,0.0048,0.0046,0.0053,0.0051,0.005,0.0049,0,0,0.0335,0.036,0.0367,0.0399,0.0388,0.0406,0.0421,0.0436,0.0471,0.0407,0.0443,0.0372,0.0337,0.0317,0.0265,0.0232,0.0208,0.0173,0.0169,0.0143,0.0137,0.0088,0.008,0.0181,0.0181,0.0182,0.009,0,0.0386,0.0455,0.0446,0.0511,0.0549,0.0525,0.0555,0.0557,0.0543,0.0559,0.0489,0.0491,0.0391,0.0393,0.0341,0.0251,0.0207,0.0235,0.0102,0.0098,0.0061,0.0079,0.0111,0.0031,0.0087,0.0087,0.0086,0,0.0443,0.0487,0.0566,0.0629,0.0646,0.0678,0.0744,0.076,0.0757,0.0749,0.0721,0.066,0.0609,0.0519,0.0374,0.0396,0.0276,0.0188,0.0182,0.0113,0.0047,0.001,0.0024,0.0082,0.0082,0.0082,0.0083,0,0.0511,0.0574,0.0653,0.0666,0.0721,0.0771,0.0806,0.0828,0.0878,0.0879,0.0913,0.0816,0.0793,0.0635,0.0425,0.041,0.0251,0.0211,0.0051,0.0046,0.0037,0.003,0.0109,0.0109,0.011,0.011,0.011,0,0.0576,0.0637,0.07,0.0744,0.0864,0.0864,0.0985,0.1004,0.105,0.113,0.1024,0.1052,0.0821,0.0691,0.0483,0.0257,0.0292,0.0071,0.0026,0.0063,0.006,0.0077,0.0075,0.0106,0.0107,0.0108,0.0109,0,0.0636,0.0667,0.0768,0.0857,0.0901,0.099,0.1118,0.1198,0.1225,0.1329,0.134,0.1238,0.1068,0.0812,0.0552,0.0353,0.0132,0.0037,0.0083,0.0046,-0.0071,-0.0068,-0.0126,-0.0129,-0.0131,-0.0132,-0.0134,0,0.0673,0.0731,0.0865,0.095,0.1001,0.1131,0.1228,0.1289,0.1377,0.1442,0.1497,0.1371,0.1286,0.0873,0.0504,0.0147,0.0101,-0.0059,-0.0084,-0.0054,-0.0092,-0.0086,-0.0081,-0.0073,-0.0073,-0.0074,-0.0074,0,0.075,0.0796,0.0888,0.1065,0.1189,0.1328,0.1467,0.1558,0.1632,0.1706,0.1741,0.1678,0.1303,0.0926,0.0438,0.0202,0.0001,-0.0084,-0.0049,-0.0019,-0.0011,-0.0046,-0.0041,-0.008,-0.0079,-0.0079,-0.0079,-0.0078,0.0815,0.0894,0.1024,0.1192,0.1337,0.1499,0.1615,0.1739,0.1873,0.1964,0.1897,0.1806,0.1413,0.0779,0.0355,-0.007,-0.0038,-0.0184,-0.0179,-0.0174,-0.0152,-0.0148,-0.0239,-0.024,-0.024,-0.024,-0.024,0,0.0893,0.0985,0.1144,0.1334,0.149,0.156,0.1756,0.1848,0.1987,0.2058,0.2062,0.1681,0.1269,0.0819,0.0183,-0.0194,-0.0205,-0.031,-0.024,-0.0231,-0.0224,-0.0203,-0.0306,-0.0307,-0.0308,-0.031,0,0,0.0939,0.1087,0.1165,0.1425,0.1559,0.1749,0.1856,0.1981,0.2068,0.2101,0.2051,0.1946,0.1411,0.0936,0.0421,0.0051,0.0003,-0.0013,0.0084,0.0237,0.0249,-0.0106,-0.0057,0,0,0,0,0]}],[{"header":{"parameterUnit":"m.s-1","parameterCategory":2,"la1":30.2991,"la2":30.254,"lo1":-89.0895,"lo2":-89.0444,"dy":0.0017,"dx":0.0017,"nx":28,"ny":28,"refTime":"2023-10-19T09:00:00:Z","depth":"4","parameterNumber":2,"parameterNumberName":"U-component_of_CURRENTS"},"data":[0,0,0,0,0,0,0,0,0,0,0,0,0,0,0,0,0,0,0,0,0,0,0,0,0,0,0,0,0,0,0,0,0,0,0,0,0,0,0,0,0,0,0,0,0,0,0,0,0,0,0,0,0,0,0,0,0,0,0.1822,0.1823,0,0.1937,0.1938,0.1939,0.2004,0.2005,0.2005,0.2006,0.2118,0.212,0.2123,0,0,0,0,0,0,0,0,0,0,0,0,0,0.1723,0.1724,0.1822,0.1823,0.1825,0.1937,0.1938,0.1939,0.2004,0.2005,0.2006,0.2006,0.2117,0.212,0.2123,0,0,0,0,0,0,0,0,0,0,0,0,0,0.1791,0.1724,0.1821,0.1874,0.1881,0.1937,0.1938,0.1939,0.2004,0.2005,0.2006,0.2007,0.2116,0.212,0.2123,0.2127,0,0,0.2134,0.2136,0,0,0,0,0,0,0,0,0.1787,0.1793,0.1865,0.1871,0.1878,0.1961,0.1945,0.2003,0.2004,0.1953,0.2006,0.2007,0.2067,0.2075,0.2088,0.2132,0.2137,0.2135,0.2137,0.2138,0.2139,0,0,0,0,0,0,0,0.1782,0.1789,0.1863,0.1867,0.1875,0.1915,0.1925,0.1956,0.2,0.1957,0.1963,0.1983,0.207,0.2085,0.2092,0.2139,0.2135,0.2138,0.214,0.2141,0.2287,0.2289,0,0,0,0,0,0,0.1772,0.1784,0.1859,0.1867,0.1839,0.1916,0.1927,0.193,0.2,0.2013,0.1982,0.1985,0.2078,0.2087,0.2096,0.2193,0.2138,0.2142,0.2144,0.2286,0.2288,0.229,0,0,0,0,0,0,0.1769,0.1777,0.1855,0.1833,0.1846,0.1917,0.192,0.1932,0.1994,0.2019,0.2031,0.2038,0.2079,0.2091,0.2152,0.2194,0.2143,0.2147,0.2284,0.2286,0.2289,0.233,0,0,0,0,0,0,0.1765,0.1774,0.1797,0.1831,0.1847,0.1908,0.192,0.1933,0.2004,0.2011,0.2071,0.2079,0.2081,0.2146,0.2155,0.2198,0.2149,0.2281,0.2285,0.2288,0.2326,0.2333,0.234,0,0,0,0,0,0.1761,0.1788,0.1796,0.1808,0.1867,0.191,0.1922,0.1972,0.2006,0.2033,0.2073,0.208,0.2173,0.2151,0.2161,0.2206,0.228,0.2284,0.2288,0.2323,0.2332,0.2339,0,0,0,0,0,0,0.1773,0.1798,0.1808,0.1846,0.1883,0.1923,0.1972,0.2001,0.2056,0.2077,0.21,0.211,0.2179,0.2188,0.2163,0.2257,0.2229,0.2235,0.2253,0.2262,0.2268,0.2292,0.2152,0,0,0,0,0,0.1779,0.1796,0.183,0.1863,0.189,0.1939,0.1976,0.2002,0.2047,0.2075,0.212,0.2163,0.2195,0.2226,0.2254,0.2309,0.2334,0.2346,0.2353,0.2358,0.2385,0.2447,0.2462,0.2302,0.2302,0.2302,0,0,0.1791,0.1812,0.1823,0.1866,0.1908,0.1937,0.1964,0.2027,0.2058,0.2077,0.216,0.2192,0.2215,0.2268,0.2301,0.2289,0.2416,0.2363,0.2367,0.2392,0.2453,0.2468,0.2482,0.2305,0.2304,0.2304,0,0,0.1813,0.1849,0.1867,0.19,0.196,0.1977,0.2004,0.2067,0.2112,0.217,0.2196,0.2264,0.2314,0.2346,0.2362,0.2429,0.2446,0.244,0.25,0.2559,0.2572,0.2585,0.263,0.2646,0.2446,0.2446,0.2446,0,0.1829,0.185,0.1884,0.1916,0.1953,0.1997,0.203,0.2071,0.2145,0.2199,0.2201,0.2327,0.2349,0.2426,0.2447,0.2447,0.2478,0.2462,0.2568,0.2581,0.2593,0.2636,0.2653,0.2449,0.2448,0.2448,0.2448,0,0.1853,0.1884,0.1912,0.1945,0.1987,0.2029,0.2077,0.2141,0.2197,0.2243,0.2356,0.2394,0.2482,0.2489,0.2487,0.2594,0.2587,0.2564,0.2545,0.2611,0.2652,0.267,0.2452,0.2451,0.2451,0.245,0,0,0.1839,0.1907,0.1921,0.1946,0.2009,0.2042,0.211,0.2186,0.2264,0.2337,0.2452,0.251,0.2579,0.2605,0.2631,0.2678,0.2781,0.2668,0.267,0.271,0.2915,0.2724,0.2724,0.2778,0.2781,0.2784,0.2906,0,0.1847,0.1888,0.1932,0.1985,0.2008,0.2084,0.2147,0.2229,0.2308,0.2431,0.2511,0.2622,0.2607,0.2679,0.2728,0.2779,0.2831,0.2751,0.2849,0.2852,0.2672,0.2739,0.2795,0.2919,0.2923,0.2926,0.2928,0,0.1848,0.1873,0.1921,0.2004,0.2034,0.2085,0.2215,0.2292,0.2453,0.2529,0.2659,0.2731,0.2862,0.2824,0.2954,0.2908,0.2932,0.2943,0.2948,0.2772,0.2693,0.2842,0.2959,0.2957,0.2954,0.2952,0.295,0,0.1794,0.187,0.1906,0.1935,0.2033,0.2108,0.2195,0.2341,0.2439,0.2638,0.2719,0.2869,0.2982,0.3032,0.3077,0.304,0.3188,0.3133,0.2981,0.2968,0.3085,0.307,0.3222,0.3222,0.3222,0.3221,0.3221,0,0.1758,0.1796,0.1899,0.192,0.2007,0.2112,0.2245,0.2358,0.2545,0.2663,0.2802,0.2897,0.3042,0.3133,0.3138,0.3117,0.3248,0.3014,0.2993,0.3097,0.3082,0.3096,0.308,0.3226,0.3225,0.3224,0.3223,0,0.1685,0.1747,0.1799,0.1924,0.198,0.2064,0.2269,0.2363,0.2548,0.271,0.2789,0.2985,0.3095,0.3178,0.3286,0.3186,0.3186,0.3143,0.3273,0.3253,0.2912,0.2897,0.2985,0.298,0.2975,0.2971,0.2968,0,0.1635,0.1652,0.1793,0.1841,0.1911,0.2051,0.2145,0.2355,0.2458,0.2719,0.2785,0.2979,0.3071,0.3073,0.3171,0.3181,0.3131,0.3112,0.2985,0.2921,0.2892,0.2884,0.2876,0.296,0.2959,0.2958,0.2956,0,0.1539,0.1616,0.1666,0.1757,0.1859,0.1958,0.2121,0.2183,0.2424,0.2599,0.2717,0.2781,0.2902,0.2973,0.3013,0.3001,0.3109,0.3061,0.3069,0.2949,0.2891,0.2866,0.2863,0.294,0.2942,0.2944,0.2945,0,0.1484,0.1491,0.157,0.1654,0.1769,0.1839,0.1934,0.2059,0.2189,0.2481,0.2522,0.27,0.2894,0.2883,0.2912,0.2898,0.2836,0.2718,0.2743,0.2762,0.2625,0.2514,0.2449,0,0,0,0,0,0.1399,0.1404,0.1459,0.1534,0.1651,0.1726,0.1901,0.2004,0.2232,0.2259,0.2389,0.2482,0.255,0.2655,0.2592,0.279,0.2832,0.2701,0.2705,0.2849,0.2868,0.2723,0,0,0,0,0,0,0.1342,0.138,0.1403,0.1427,0.1476,0.1578,0.1688,0.1837,0.1871,0.211,0.2169,0.2333,0.2443,0.2568,0.255,0.2575,0.2523,0.2824,0.2817,0.2838,0.2855,0.2871,0.2729,0,0,0,0,0]},{"header":{"parameterUnit":"m.s-1","parameterCategory":2,"la1":30.2991,"la2":30.254,"lo1":-89.0895,"lo2":-89.0444,"dy":0.0017,"dx":0.0017,"nx":28,"ny":28,"refTime":"2023-10-19T09:00:00:Z","depth":"4","parameterNumber":3,"parameterNumberName":"V-component_of_CURRENTS"},"data":[0,0,0,0,0,0,0,0,0,0,0,0,0,0,0,0,0,0,0,0,0,0,0,0,0,0,0,0,0,0,0,0,0,0,0,0,0,0,0,0,0,0,0,0,0,0,0,0,0,0,0,0,0,0,0,0,0,0,0.0136,0.0136,0,0.0095,0.0094,0.0093,0.0082,0.0082,0.0083,0.0083,0.0037,0.0035,0.0033,0,0,0,0,0,0,0,0,0,0,0,0,0,0.0146,0.0146,0.0136,0.0136,0.0135,0.0095,0.0094,0.0093,0.0082,0.0082,0.0083,0.0083,0.0037,0.0035,0.0033,0,0,0,0,0,0,0,0,0,0,0,0,0,0.0126,0.0146,0.0136,0.0126,0.0124,0.0095,0.0094,0.0093,0.0082,0.0082,0.0083,0.0083,0.0038,0.0035,0.0033,0.0008,0,0,0.0026,0.0025,0,0,0,0,0,0,0,0,0.0127,0.0125,0.0128,0.0126,0.0125,0.0095,0.008,0.0065,0.0082,0.0096,0.0083,0.0084,0.0056,0.0052,0.0041,0.0006,0.0004,0.0026,0.0024,0.0023,0.0023,0,0,0,0,0,0,0,0.0128,0.0126,0.0118,0.0127,0.0125,0.0103,0.0101,0.0077,0.0073,0.0095,0.0095,0.0092,0.0055,0.0044,0.004,0.0003,0.0026,0.0024,0.0022,0.0021,-0.004,-0.004,0,0,0,0,0,0,0.0139,0.0128,0.012,0.0117,0.0129,0.0103,0.01,0.0103,0.0073,0.0069,0.0092,0.0092,0.0048,0.0043,0.0039,0.0037,0.0023,0.0021,0.002,-0.0039,-0.004,-0.004,0,0,0,0,0,0,0.0139,0.0139,0.0121,0.0122,0.0119,0.0102,0.0105,0.0102,0.0097,0.0071,0.0067,0.0091,0.0048,0.0042,0.0026,0.0034,0.002,0.0018,-0.0039,-0.0039,-0.004,0.0014,0,0,0,0,0,0,0.014,0.0139,0.0146,0.0123,0.0119,0.0115,0.0105,0.0101,0.0095,0.0095,0.0069,0.0065,0.0048,0.0029,0.0023,0.0031,0.0016,-0.0039,-0.0039,-0.004,0.0013,0.0016,0.0018,0,0,0,0,0,0.014,0.0154,0.0147,0.0146,0.013,0.0116,0.0112,0.01,0.0095,0.0097,0.0078,0.0066,0.0023,0.0027,0.002,0.0027,-0.0039,-0.0039,-0.004,0.0011,0.0015,0.0018,0,0,0,0,0,0,0.0164,0.0153,0.0146,0.0155,0.0141,0.0115,0.0119,0.0103,0.0088,0.0092,0.0062,0.0057,0.0043,0.0024,0.003,0.0006,-0.001,-0.0012,0.0031,0.0034,0.0037,0.0064,0.0014,0,0,0,0,0,0.0172,0.0179,0.0159,0.0167,0.0164,0.014,0.0134,0.0124,0.0106,0.01,0.0078,0.0055,0.0033,0.0027,0.0002,-0.0009,-0.0042,-0.0011,-0.0008,-0.0005,0.0011,-0.0045,-0.0046,-0.0041,-0.0041,-0.0041,0,0,0.0182,0.0178,0.0181,0.0172,0.0162,0.0168,0.0138,0.0136,0.0141,0.0096,0.0098,0.0062,0.003,0.0018,0.0011,0.0007,-0.0025,-0.0006,-0.0003,0.0012,-0.0046,-0.0046,-0.0047,-0.0042,-0.0042,-0.0042,0,0,0.0211,0.0205,0.0222,0.0214,0.0205,0.0191,0.0193,0.0169,0.0163,0.0149,0.012,0.0092,0.0059,0.004,0.0025,0.0027,-0.0013,0.0015,0.006,0.0005,0.0004,0.0004,-0.0042,-0.0048,0.0023,0.0023,0.0023,0,0.0226,0.0244,0.0223,0.0238,0.0242,0.0207,0.0227,0.0213,0.0185,0.018,0.0161,0.0102,0.0072,0.0059,0.0061,0.0036,-0.0001,0.0053,0.001,0.0008,0.0007,-0.004,-0.0047,0.0026,0.0026,0.0025,0.0025,0,0.0263,0.028,0.0291,0.0302,0.0301,0.031,0.0292,0.0289,0.0269,0.0243,0.0217,0.0165,0.0136,0.0113,0.009,0.0067,0.0042,0.0015,0.0006,0.001,-0.0041,-0.0048,0.003,0.0029,0.0028,0.0027,0,0,0.0291,0.0315,0.032,0.0342,0.0337,0.0344,0.0358,0.0354,0.0363,0.0315,0.0316,0.0259,0.022,0.0201,0.0157,0.0112,0.006,0.0068,0.0063,0.0032,-0.0059,-0.0051,-0.006,0.0022,0.0021,0.002,-0.009,0,0.0329,0.0382,0.0378,0.0425,0.045,0.0432,0.0451,0.044,0.0412,0.0399,0.0336,0.0313,0.0257,0.0243,0.0187,0.0092,0.0043,0.0093,-0.0065,-0.0069,-0.0056,-0.0067,0.0017,-0.0096,-0.0098,-0.0099,-0.01,0,0.0364,0.04,0.046,0.0501,0.0511,0.0536,0.0559,0.0569,0.0537,0.0513,0.0469,0.0407,0.0347,0.0293,0.0138,0.017,0.0069,-0.0013,-0.002,-0.0032,-0.0075,-0.0102,-0.0115,-0.0113,-0.0112,-0.0111,-0.011,0,0.04,0.0453,0.051,0.0521,0.0561,0.0594,0.0619,0.0608,0.0627,0.0589,0.058,0.0484,0.0447,0.0304,0.0134,0.0133,-0.0049,-0.0076,-0.0165,-0.0166,-0.0163,-0.0161,-0.0185,-0.0185,-0.0185,-0.0185,-0.0184,0,0.0436,0.048,0.0539,0.0571,0.0649,0.0655,0.0719,0.0722,0.0727,0.0748,0.065,0.0634,0.0445,0.0315,0.0154,-0.0027,-0.0039,-0.0152,-0.0192,-0.0139,-0.0133,-0.0169,-0.0166,-0.0189,-0.0188,-0.0187,-0.0186,0,0.0459,0.0494,0.0567,0.0638,0.067,0.0729,0.081,0.0846,0.0838,0.0862,0.0858,0.0746,0.0584,0.0377,0.0144,0.0015,-0.017,-0.0234,-0.0154,-0.0189,-0.0254,-0.0247,-0.0332,-0.0333,-0.0333,-0.0334,-0.0334,0,0.0474,0.0514,0.0624,0.0683,0.0724,0.0813,0.0877,0.091,0.0948,0.0927,0.0943,0.0807,0.0704,0.0388,0.0164,-0.0139,-0.0184,-0.0284,-0.027,-0.0238,-0.0269,-0.0261,-0.0253,-0.0335,-0.0335,-0.0335,-0.0335,0,0.0499,0.0542,0.0609,0.0735,0.0825,0.0914,0.1007,0.1045,0.1072,0.1064,0.1016,0.085,0.067,0.0417,0.0178,-0.0043,-0.0222,-0.0291,-0.0291,-0.0278,-0.0243,-0.0271,-0.0262,-0.0337,-0.0337,-0.0336,-0.0336,0,0.0522,0.0571,0.0666,0.0779,0.0892,0.0984,0.1031,0.1083,0.1122,0.1104,0.1088,0.0886,0.0778,0.0466,0.0242,0.0029,-0.0021,-0.0097,-0.0108,-0.0109,-0.0015,0.0065,0.0036,0,0,0,0,0,0.0537,0.0597,0.0699,0.0824,0.0937,0.1004,0.1101,0.1133,0.1165,0.1149,0.1124,0.0958,0.0647,0.0512,0.0305,0.0214,-0.0076,-0.0039,-0.0173,-0.0347,-0.0345,-0.0273,0,0,0,0,0,0,0.0548,0.0639,0.0694,0.084,0.093,0.1049,0.1116,0.1138,0.1132,0.1132,0.0978,0.0905,0.0607,0.0772,0.0303,0.0237,0.0122,-0.018,-0.0185,-0.0348,-0.0346,-0.0345,-0.027,0,0,0,0,0]}]]